Regional Weather Roundup
Issued by NWS

Home | Current Version | Previous Version | Text Only | Print | Product List | Glossary On
Versions: 1 2 3 4 5 6 7 8 9 10 11 12 13 14 15 16 17 18 19 20 21 22 23 24 25 26 27 28 29 30 31 32 33 34 35 36 37 38 39 40 41 42 43 44 45 46 47 48 49 50
000
ASCA42 TJSJ 210910
RWRPR
PUERTO RICO/U.S. VIRGIN ISLANDS HOURLY WEATHER ROUNDUP
NATIONAL WEATHER SERVICE SAN JUAN PR
500 AM AST TUE APR 21 2015

PRZ001-004-211000-
PUERTO RICO

CITY           SKY/WX    TMP DP  RH WIND       PRES   REMARKS
SAN JUAN LMM   PTCLDY    77  70  78 CALM      30.02R
PONCE          PTCLDY    73  66  78 CALM      29.96S
CEIBA          MOCLDY    79  70  73 E6        30.03R
$$

PRZ006-007-211000-
U.S. VIRGIN ISLANDS

CITY           SKY/WX    TMP DP  RH WIND       PRES   REMARKS
CHRISTIANSTED  PTCLDY    73  68  83 NE6       30.01
$$

HOURLY WEATHER ROUNDUP FOR THE NEWS MEDIA

CITY           SKY/WX    TMP DP  RH WIND       PRES   REMARKS
ORLANDO        CLOUDY    68  66  93 W3        29.94R
NEW YORK       MOCLDY    53  50  89 E5        29.56F
NEWARK         LGT RAIN  56  54  93 SE3       29.56S
CHICAGO        CLEAR     40  31  70 W14       29.59S WCI  32
HARTFORD       CLOUDY    57  57 100 S13G18    29.57F
BOSTON         LGT RAIN  47  47 100 SE8       29.58F VSB 1/2
DALLAS         PTCLDY    54  44  69 CALM      30.01R
PHILADELPHIA   LGT RAIN  59  57  93 S5        29.59S FOG
LOS ANGELES    MOCLDY    58  50  75 SE5       29.91F
WASHINGTON DC  CLOUDY    57  43  59 NW20G30   29.69R


USA.gov is the U.S. government's official web portal to all federal, state and local government web resources and services.